Location: Quebec
(46.8000°N, 71.2500°W)
Time: 06:41:17
(UTC-04:00)

ISS - Pass Details

Date: 11 October 2017
Orbit: 401 x 408 km, 51.6° (Epoch: 20 October)

Event Time Altitude Azimuth Distance (km) Brightness Sun altitude
Rises 20:25:55 0° 290° (WNW) 2,328 1.4 -24.8°
Reaches altitude 10° 20:28:13 10° 277° (W) 1,466 0.0 -25.1°
Enters shadow 20:30:06 22° 246° (WSW) 943 -1.5 -25.4°
